SCP
0 0 0 0 0 0 0 0 0 0 1 1 1 1 1 1 0 0 0 0 0 0 0 0 0 0 0 0 0 0 0 1 2 2 1 1 1 1 0 0 0 0 0 0
0 0 0 0 0 0 0 0 0 0 0 1 1 1 0 0 0 0 0 0 0 0 0 0 1 1 1 1 0 0 0 1 2 2 1 1 1 1 0 0 0 0 0 0
0 0 0 0 0 0 0 0 0 0 0 0 0 0 0 0 0 0 0 0 0 1 1 1 1 1 1 1 1 0 0 1 1 2 1 1 1 1 0 0 0 0 0 0
0 0 0 0 0 0 0 0 0 0 0 0 0 0 0 0 1 1 0 0 0 1 1 1 1 1 1 1 1 1 1 1 1 2 2 1 1 1 1 0 0 0 0 0
0 0 0 0 0 0 0 0 0 0 0 0 0 0 0 0 1 1 0 0 0 1 1 1 1 1 1 1 1 1 1 1 2 2 2 1 1 1 1 0 0 0 0 0
0 0 0 0 0 0 0 0 0 0 0 0 0 0 0 0 0 1 0 0 0 1 1 1 1 1 1 1 1 1 1 1 2 2 2 1 1 1 1 1 0 0 0 0
0 0 0 0 0 0 0 0 0 0 0 0 0 0 0 0 0 1 0 0 0 0 1 1 1 1 1 1 1 1 1 1 2 2 1 1 1 1 1 1 1 0 0 0
0 0 0 0 0 0 0 0 0 0 0 0 0 0 0 0 0 0 0 0 0 0 0 1 1 1 1 1 1 1 1 1 2 2 1 1 1 1 1 1 1 1 1 0
0 0 0 0 0 0 0 0 0 0 0 0 0 0 1 0 0 0 0 0 0 0 0 1 1 1 1 1 1 1 1 2 2 2 1 1 1 1 1 1 1 1 1 1
0 0 0 0 0 0 0 0 0 0 0 0 0 0 0 0 0 0 0 0 0 0 0 0 0 1 1 1 1 1 1 1 2 2 2 2 2 1 1 1 1 1 1 1
0 0 0 0 0 0 0 0 0 0 0 0 0 0 0 0 0 0 0 0 0 0 0 0 0 0 1 1 1 1 1 1 1 1 2 2 2 2 1 1 1 1 1 1
0 0 0 0 0 0 0 0 0 0 0 0 0 0 0 0 0 0 0 0 0 0 0 0 0 0 0 0 1 1 1 0 0 1 2 2 2 2 2 1 1 1 1 1
0 0 0 0 0 0 0 0 0 0 0 0 0 0 0 0 0 0 0 0 0 0 0 0 0 0 0 0 1 1 0 0 0 1 1 2 2 2 2 1 1 1 1 1
0 0 0 0 0 0 0 0 0 0 0 0 0 0 0 0 0 0 0 0 0 0 0 0 0 1 0 0 0 1 0 0 0 0 0 1 1 1 2 2 1 1 1 1
0 0 0 0 0 0 0 0 0 0 0 0 0 0 0 0 0 0 0 0 0 0 0 0 0 1 1 0 0 1 0 0 0 0 0 0 0 1 1 2 1 1 1 1
0 0 0 0 0 0 0 0 0 0 0 0 0 0 0 0 0 0 0 0 0 0 0 0 0 0 0 0 0 1 1 0 0 0 0 0 0 0 1 1 1 1 1 1
0 0 0 0 0 0 0 0 0 0 0 0 0 0 0 0 0 0 0 0 0 0 0 0 0 0 0 0 0 0 0 0 0 0 0 0 0 0 0 1 1 1 1 1
0 0 0 0 0 0 0 0 0 0 0 0 0 0 0 0 0 0 0 0 0 0 0 0 0 0 0 0 0 0 0 0 0 0 0 0 0 0 0 0 1 1 1 1
0 0 0 0 0 0 0 0 0 0 0 0 0 0 0 0 0 0 0 0 0 0 0 0 0 0 0 0 0 0 0 0 0 0 0 0 0 0 0 0 0 1 1 1
0 0 0 0 0 0 0 0 0 0 0 0 0 0 0 0 0 0 0 0 0 0 0 0 0 0 0 0 0 0 0 0 0 0 0 0 0 0 0 0 0 0 1 1
0 0 0 0 0 0 0 0 0 0 0 0 0 0 0 0 0 0 0 0 0 0 0 0 0 0 0 0 0 0 0 0 0 0 0 0 0 0 0 0 0 0 1 1
0 0 0 0 0 0 0 0 0 0 0 0 0 0 0 0 0 0 0 0 0 0 0 0 0 0 0 0 0 0 0 0 0 0 0 0 0 0 0 0 0 0 0 1
0 0 0 0 0 0 0 0 0 0 0 0 0 0 0 0 0 0 0 0 0 0 0 0 0 0 0 0 0 0 0 0 0 0 0 0 0 0 0 0 0 0 0 0
0 0 0 0 0 0 0 0 0 0 0 0 0 0 0 0 0 0 0 0 0 0 0 0 0 0 0 0 0 0 0 0 0 0 0 0 0 0 0 0 0 0 0 0
0 0 0 0 0 0 0 0 0 0 0 0 0 0 0 0 0 0 0 0 0 0 0 0 0 0 0 0 0 0 0 0 0 0 0 0 0 0 0 0 0 0 0 0
0 0 0 0 0 0 0 0 0 0 0 0 0 0 0 0 0 0 0 0 0 0 0 0 0 0 0 0 0 0 0 0 0 0 0 0 0 0 0 0 0 0 0 0
Wind_Speed
3 6 7 6 5 5 5 6 5 4 1 4 6 5 4 2 4 5 4 5 5 5 4 4 3 3 3 2 2 2 2 2 2 1 1 2 2 2 2 2 3 2 2 2
6 7 3 2 3 5 7 7 6 3 1 4 5 5 4 3 4 4 4 4 5 5 5 4 4 4 3 3 2 2 2 2 2 1 1 1 2 2 2 1 2 2 2 2
7 0 1 4 6 7 7 8 6 5 3 5 6 6 5 3 3 2 3 3 4 4 5 5 4 4 4 3 3 2 3 3 2 2 1 2 2 1 2 1 1 2 2 1
4 2 4 6 6 7 6 4 5 5 7 4 5 6 3 3 3 2 3 3 3 3 4 4 4 4 4 3 3 3 3 2 2 2 2 2 1 1 1 1 1 2 1 1
3 2 4 6 4 5 3 1 4 6 7 7 6 8 2 3 3 2 2 3 3 3 3 4 4 4 3 3 3 2 3 2 2 2 2 2 1 1 1 1 2 2 2 1
2 1 3 2 1 2 3 4 4 5 7 8 5 7 3 1 3 2 1 2 3 4 4 4 4 3 3 3 3 3 3 3 2 2 2 2 2 2 2 2 2 2 2 1
4 4 2 2 3 5 6 6 5 6 6 4 1 5 2 2 2 2 1 1 3 4 4 4 3 3 3 3 3 3 4 3 3 3 3 3 2 2 2 2 2 2 1 1
4 4 3 1 3 4 5 7 6 4 4 1 3 5 2 3 2 1 1 1 3 4 3 3 3 3 3 3 3 3 4 3 4 4 3 3 3 2 2 2 2 2 1 1
3 2 3 1 2 4 5 5 5 7 6 6 4 2 2 2 2 3 2 3 3 3 3 3 2 2 2 2 2 3 3 3 3 4 3 3 3 3 3 3 2 2 2 2
3 3 1 0 3 1 3 2 4 6 6 6 4 4 2 2 1 2 2 2 2 2 2 2 2 2 1 2 2 2 2 2 2 3 3 2 3 3 3 3 3 3 3 2
4 5 3 3 4 3 3 4 5 5 6 6 5 1 2 1 1 1 1 1 1 1 2 1 1 1 1 1 2 2 1 1 1 2 2 3 3 3 3 3 3 4 3 4
2 5 4 3 0 3 4 4 5 6 5 6 6 1 3 2 2 1 1 1 1 1 1 1 1 1 1 1 1 1 1 1 2 2 2 2 2 2 3 3 4 4 4 4
2 5 4 4 6 4 4 3 4 6 6 7 8 2 4 2 1 1 1 1 1 1 1 1 1 0 0 1 1 1 1 1 2 2 2 2 2 3 3 3 3 4 4 4
4 5 7 6 3 2 4 5 6 8 8 8 9 7 4 3 1 1 1 1 1 1 1 1 1 1 1 1 2 1 1 1 2 2 2 2 3 3 3 3 3 4 4 4
5 6 5 5 5 5 7 8 8 10 10 11 9 8 7 5 4 3 2 2 2 2 2 2 2 2 2 2 2 2 1 1 2 2 3 3 3 3 3 3 3 3 4 4
3 5 5 6 5 5 8 9 10 10 10 11 10 10 5 4 4 3 3 3 4 4 3 3 3 3 2 2 2 2 2 1 2 2 3 3 3 3 3 3 3 3 3 4
4 5 5 5 4 7 9 8 9 8 8 9 10 7 3 4 4 4 3 4 5 4 4 4 4 3 3 2 2 2 2 2 2 2 3 2 3 3 3 3 3 4 4 4
6 6 4 4 5 8 1 2 3 6 7 7 6 5 5 4 4 4 3 3 4 4 4 4 4 3 3 2 2 2 2 2 3 3 3 3 3 3 4 4 4 5 4 4
6 6 4 4 6 7 4 3 3 5 6 4 5 5 4 3 4 3 1 2 4 4 4 3 4 3 3 2 2 2 2 3 3 3 3 4 4 4 4 4 5 5 4 4
4 6 6 6 6 6 0 2 1 5 5 2 3 3 3 3 5 2 1 3 3 3 3 3 3 3 3 3 3 3 3 3 4 4 4 4 5 5 5 5 5 4 5 5
5 6 8 9 8 6 0 1 3 6 1 2 2 3 4 5 5 3 3 3 3 3 3 3 3 3 3 3 3 4 4 4 4 4 4 4 5 5 5 4 4 5 5 5
5 5 7 7 8 5 3 3 4 3 3 1 2 3 4 4 4 3 3 3 3 3 3 3 3 3 3 3 4 4 4 4 4 4 4 4 5 5 4 4 4 5 5 5
6 5 3 5 4 3 2 4 4 4 5 4 4 4 4 5 5 5 5 4 4 4 4 3 4 4 3 3 4 4 4 4 4 4 5 5 5 5 5 5 5 5 5 5
4 4 6 7 7 6 6 6 6 6 6 6 5 5 5 6 6 6 5 4 4 4 4 4 4 4 4 4 4 4 5 4 5 5 5 4 5 5 5 4 4 4 5 5
5 5 7 9 8 8 7 7 7 6 6 6 6 5 6 6 6 6 5 5 5 4 4 4 4 5 5 5 5 4 4 4 5 5 5 5 4 5 4 4 4 5 5 5
7 8 8 8 7 7 6 6 7 7 7 6 5 6 6 6 6 6 5 5 5 5 4 4 5 5 5 5 5 5 5 5 5 5 5 4 4 4 4 4 4 4 5 5
Wind_Direction
190 220 220 225 243 278 269 260 264 277 267 242 245 251 256 222 215 223 214 207 197 191 171 159 164 165 157 147 148 126 127 118 114 122 123 108 102 97 83 69 72 88 109 117
206 224 249 263 234 236 243 251 258 260 243 253 260 263 261 248 232 237 234 214 201 189 168 163 169 173 163 151 158 146 131 125 120 108 107 109 114 106 90 84 95 104 113 122
235 298 154 207 213 227 240 254 263 272 260 241 264 249 224 207 210 218 234 231 210 197 179 169 171 171 165 159 164 158 143 139 136 130 107 102 112 118 117 100 91 101 111 124
233 221 214 223 229 243 248 263 257 251 250 251 251 275 216 207 205 211 214 205 201 193 186 174 172 169 171 163 163 165 153 151 137 134 134 140 141 130 116 123 119 117 112 129
195 196 217 232 247 247 279 248 239 250 261 262 237 262 223 193 236 246 209 189 197 188 178 172 172 174 167 156 160 169 156 156 146 150 150 179 157 146 141 148 138 131 115 112
230 225 263 275 273 217 172 194 209 230 248 252 245 255 263 199 272 282 196 170 183 176 166 163 160 163 156 152 156 167 169 167 162 178 184 200 178 166 163 167 160 157 138 137
196 188 174 219 205 185 214 232 234 221 220 239 174 249 284 30 328 289 278 178 165 162 161 155 149 157 156 158 160 169 178 181 184 196 208 211 211 197 190 193 194 199 181 179
216 191 150 223 255 238 227 247 264 277 269 254 210 244 74 52 48 71 104 120 141 146 151 154 155 162 164 162 165 175 185 188 193 205 214 220 216 223 212 211 209 217 227 225
245 182 110 33 305 261 227 235 285 281 276 269 231 202 154 99 102 92 93 105 121 137 146 153 156 163 162 165 170 177 185 189 195 208 216 223 223 224 224 225 228 227 231 238
286 251 165 138 203 146 296 251 232 246 261 258 237 235 224 163 123 97 88 98 115 136 141 136 134 155 152 155 166 174 185 203 212 216 224 227 227 227 229 230 227 233 232 232
266 249 204 203 228 230 201 214 240 253 265 272 265 192 57 146 161 143 98 96 112 141 163 158 147 119 139 147 160 174 189 209 234 243 234 229 228 232 229 231 233 237 235 227
262 267 246 233 62 311 263 250 244 255 254 265 278 271 85 110 125 133 108 99 114 136 159 169 158 127 109 181 186 201 222 238 247 252 249 242 237 234 237 236 237 241 240 236
232 249 242 197 180 184 213 223 245 264 265 253 255 238 115 132 126 104 127 150 164 165 169 169 152 161 220 239 231 232 257 262 256 257 251 248 244 244 246 242 240 242 242 239
261 252 262 276 314 274 246 240 240 246 250 254 253 261 254 258 260 296 281 245 252 237 230 224 213 232 254 260 260 258 263 273 267 259 254 250 254 257 256 256 250 248 242 241
248 257 263 282 292 275 265 258 246 247 257 264 268 266 273 277 278 277 271 259 266 270 264 263 266 269 265 274 273 267 262 271 268 260 257 260 266 269 268 261 258 255 250 247
245 252 259 262 260 260 265 259 249 250 255 255 260 268 281 287 272 268 270 267 259 262 270 276 274 282 287 288 283 273 273 276 267 267 266 270 271 271 269 269 265 256 253 252
219 238 257 262 262 266 258 252 240 238 240 248 257 268 271 270 271 274 279 270 271 273 283 285 285 289 294 292 296 286 280 277 271 275 278 279 280 279 272 272 269 257 253 254
233 235 252 269 260 248 295 28 271 250 254 254 265 269 263 273 279 280 278 278 288 290 291 293 294 292 287 288 286 284 269 267 267 274 283 287 281 279 275 266 263 261 256 251
240 231 233 242 257 267 255 221 228 249 263 244 254 266 271 264 255 251 260 290 295 301 299 299 299 292 285 283 285 285 273 272 270 274 281 282 281 278 275 268 265 264 263 258
198 228 235 234 252 258 212 108 254 256 251 194 252 263 267 255 257 265 322 298 296 305 304 303 301 296 293 296 288 281 277 279 282 285 288 288 283 276 271 271 270 265 259 257
194 208 226 237 248 262 355 141 219 239 345 82 250 262 256 264 300 328 314 300 297 295 303 302 298 295 297 295 285 280 281 285 291 295 295 292 288 282 275 273 270 266 262 257
222 217 220 228 235 240 132 184 233 314 352 293 281 272 266 279 298 294 291 292 295 292 296 291 289 292 297 291 282 285 291 298 298 293 289 286 286 286 278 267 265 263 260 255
233 243 251 240 261 336 231 253 283 293 284 285 283 277 267 271 278 283 284 281 279 280 284 284 288 290 289 289 288 287 292 296 293 287 284 283 281 283 280 269 261 257 255 254
227 238 249 256 257 265 267 271 275 278 281 287 284 278 261 267 275 276 276 273 271 272 277 282 283 282 285 289 288 288 292 290 285 283 284 285 287 288 287 279 268 261 255 254
246 222 241 257 267 274 263 266 278 282 283 279 275 266 265 266 268 270 267 267 269 269 272 275 276 278 281 285 287 290 292 286 279 281 283 282 282 282 284 282 279 268 266 268
225 227 241 262 269 271 279 288 286 280 277 273 268 266 264 262 265 267 265 265 267 267 269 269 269 272 277 283 286 288 287 283 281 282 285 283 280 279 276 277 277 271 265 278